sat.trackr.live / text

‹ back to catalog

MOHAMMED VI-B

NORAD 43717 · 2018-095A

PAYLOAD ACTIVE UNKNOWN

§ Identity

Operator
Country
MA
Launch date
2018-11-21
Launch site
FRGUI
Launch vehicle
Mass (kg)
RCS (m²)

External: N2YO · Heavens-Above · Gunter

§ Orbital elements

Epoch: 2026-09-15T22:49:47.970624Z

Period
97.49 min
Inclination
97.9482°
Eccentricity
0.0001152
Mean motion
14.77093591 rev/d
Perigee alt
637.7 km
Apogee alt
639.3 km
Semi-major
7,016.7 km
B*
3.6342e-5
RAAN
329.9871°
Arg perigee
98.5408°
Mean anomaly
261.5933°
Rev number
42,158

§ Raw data

MOHAMMED VI-B1 43717U 18095A   26258.95124966  .00000206  00000+0  36342-4 0  99992 43717  97.9482 329.9871 0001152  98.5408 261.5933 14.77093591421580

JSON: /api/v1/satellites/43717 · /tle

For live sub-satellite position, see the globe view (requires WebGL).

§ Visibility from observer

Set your observer location to see the next 7 days of passes ≥ 10°. The values pass through the URL so the page stays shareable.

No JS? Fill the form by hand. The geolocation button needs JavaScript.

§ Radio — SatNOGS DB

ModeDescriptionDownlinkUplink
BPSK Telemetry 2.242 GHz

1 transmitter · refreshed weekly from db.satnogs.org